JST406 YSSY-YBCG

Flight info

Callsign JST406
Flight time N/A
Altitude 37000
Route TESAT H252 OLSEM Y193 BANDA Y43 GREAV DCT GOMOL
Aircraft A320/M-SDE3FGHIRWY/LB1

Departure

Time 2026-05-08 02:06
Airport Sydney Kingsford Smith International Airport (YSSY)

Arrival

Time N/A
Airport Gold Coast Airport (YBCG)
Time Latitude Longitude Altitude Speed Heading
2026-05-08 01:37 -33.93563 151.17760 30 ft 0 kts 281°
2026-05-08 01:56 -33.93567 151.17783 30 ft 4 kts 283°
2026-05-08 01:57 -33.93573 151.17814 30 ft 4 kts 266°
2026-05-08 01:57 -33.93569 151.17829 30 ft 2 kts 190°
2026-05-08 01:57 -33.93590 151.17825 30 ft 4 kts 190°
2026-05-08 01:57 -33.93611 151.17820 30 ft 0 kts 191°
2026-05-08 02:01 -33.93616 151.17819 30 ft 2 kts 191°
2026-05-08 02:01 -33.93636 151.17814 30 ft 4 kts 192°
2026-05-08 02:01 -33.93683 151.17801 30 ft 8 kts 193°
2026-05-08 02:01 -33.93748 151.17781 30 ft 11 kts 194°
2026-05-08 02:02 -33.93826 151.17784 30 ft 12 kts 129°
2026-05-08 02:02 -33.93813 151.17890 30 ft 14 kts 74°
2026-05-08 02:02 -33.93785 151.18011 30 ft 16 kts 74°
2026-05-08 02:02 -33.93752 151.18147 30 ft 18 kts 74°
2026-05-08 02:03 -33.93717 151.18297 30 ft 20 kts 74°
2026-05-08 02:03 -33.93678 151.18461 30 ft 21 kts 74°
2026-05-08 02:03 -33.93637 151.18635 30 ft 23 kts 74°
2026-05-08 02:03 -33.93598 151.18802 30 ft 18 kts 75°
2026-05-08 02:04 -33.93641 151.18936 28 ft 17 kts 151°
2026-05-08 02:04 -33.93662 151.18945 28 ft 0 kts 162°
2026-05-08 02:04 -33.93663 151.18946 28 ft 1 kts 162°
2026-05-08 02:05 -33.93698 151.18954 29 ft 10 kts 174°
2026-05-08 02:05 -33.93773 151.18896 28 ft 17 kts 251°
2026-05-08 02:05 -33.93830 151.18657 27 ft 58 kts 254°
2026-05-08 02:05 -33.93996 151.17959 28 ft 113 kts 254°
2026-05-08 02:06 -33.94234 151.16929 322 ft 130 kts 257°
2026-05-08 02:06 -33.94463 151.15866 955 ft 132 kts 256°
2026-05-08 02:06 -33.94668 151.14783 1606 ft 132 kts 257°
2026-05-08 02:06 -33.94868 151.13714 2268 ft 130 kts 256°
2026-05-08 02:07 -33.95086 151.12575 2532 ft 150 kts 254°
2026-05-08 02:07 -33.95314 151.11279 2882 ft 167 kts 255°
2026-05-08 02:07 -33.95536 151.09812 3138 ft 189 kts 255°
2026-05-08 02:07 -33.95742 151.08137 3412 ft 217 kts 264°
2026-05-08 02:08 -33.95320 151.06278 3844 ft 252 kts 295°
2026-05-08 02:08 -33.94019 151.04739 4585 ft 277 kts 323°
2026-05-08 02:08 -33.92145 151.03965 4965 ft 296 kts 352°
2026-05-08 02:08 -33.90097 151.04308 5860 ft 302 kts 18°
2026-05-08 02:09 -33.88133 151.05233 6750 ft 306 kts 22°
2026-05-08 02:09 -33.86166 151.06252 7576 ft 309 kts 22°
2026-05-08 02:09 -33.84192 151.07309 8426 ft 312 kts 22°
2026-05-08 02:09 -33.82223 151.08398 8847 ft 314 kts 22°
2026-05-08 02:10 -33.80260 151.09504 8979 ft 314 kts 22°
2026-05-08 02:10 -33.78376 151.10823 9009 ft 317 kts 40°
2026-05-08 02:10 -33.76989 151.12883 9679 ft 319 kts 63°
2026-05-08 02:10 -33.76180 151.15393 10252 ft 331 kts 74°
2026-05-08 02:11 -33.75468 151.18127 10487 ft 353 kts 75°
2026-05-08 02:11 -33.74748 151.21006 10969 ft 364 kts 76°
2026-05-08 02:11 -33.74022 151.23945 11589 ft 370 kts 76°
2026-05-08 02:11 -33.73283 151.26937 12221 ft 377 kts 76°
2026-05-08 02:12 -33.72530 151.29975 12878 ft 382 kts 76°
2026-05-08 02:12 -33.71759 151.33060 13488 ft 388 kts 77°
2026-05-08 02:12 -33.70972 151.36189 14092 ft 394 kts 77°
2026-05-08 02:12 -33.70172 151.39360 14618 ft 399 kts 77°
2026-05-08 02:13 -33.69358 151.42569 15166 ft 404 kts 77°
2026-05-08 02:13 -33.68532 151.45810 15724 ft 408 kts 77°
2026-05-08 02:13 -33.67698 151.49080 16282 ft 411 kts 77°
2026-05-08 02:13 -33.66858 151.52381 16850 ft 415 kts 77°
2026-05-08 02:14 -33.65928 151.55685 17417 ft 422 kts 70°
2026-05-08 02:14 -33.64534 151.58817 17969 ft 430 kts 58°
2026-05-08 02:14 -33.62652 151.61632 18496 ft 436 kts 46°
2026-05-08 02:14 -33.60348 151.64000 19018 ft 438 kts 33°
2026-05-08 02:15 -33.57793 151.66009 19548 ft 440 kts 31°
2026-05-08 02:15 -33.55216 151.68018 20073 ft 443 kts 31°
2026-05-08 02:15 -33.52663 151.70016 20586 ft 445 kts 31°
2026-05-08 02:15 -33.50002 151.71900 21113 ft 444 kts 22°
2026-05-08 02:16 -33.47149 151.73288 21598 ft 441 kts 12°
2026-05-08 02:16 -33.45153 151.73955 21919 ft 441 kts
2026-05-08 02:16 -33.41287 151.75194 22553 ft 444 kts
2026-05-08 02:16 -33.38293 151.76160 23040 ft 447 kts
2026-05-08 02:17 -33.35284 151.77138 23523 ft 449 kts
2026-05-08 02:17 -33.32258 151.78120 23940 ft 451 kts
2026-05-08 02:17 -33.29234 151.79101 24416 ft 451 kts
2026-05-08 02:17 -33.26201 151.80082 24855 ft 452 kts
2026-05-08 02:18 -33.23158 151.81061 25276 ft 453 kts
2026-05-08 02:18 -33.20140 151.82030 25682 ft 455 kts
2026-05-08 02:18 -33.17080 151.83012 26092 ft 457 kts
2026-05-08 02:18 -33.14010 151.83998 26499 ft 458 kts
2026-05-08 02:19 -33.10921 151.84990 26876 ft 460 kts
2026-05-08 02:19 -33.07836 151.85984 27319 ft 460 kts
2026-05-08 02:19 -33.04743 151.86980 27723 ft 461 kts
2026-05-08 02:19 -33.01639 151.87977 28132 ft 462 kts
2026-05-08 02:20 -32.98527 151.88973 28528 ft 464 kts
2026-05-08 02:20 -32.95402 151.89970 28916 ft 466 kts
2026-05-08 02:20 -32.92268 151.90972 29304 ft 467 kts
2026-05-08 02:20 -32.89122 151.91976 29663 ft 469 kts
2026-05-08 02:21 -32.85959 151.92988 30072 ft 471 kts
2026-05-08 02:21 -32.82790 151.94005 30433 ft 472 kts
2026-05-08 02:21 -32.79611 151.95027 30743 ft 474 kts
2026-05-08 02:21 -32.76457 151.96037 31050 ft 476 kts
2026-05-08 02:22 -32.73256 151.97057 31458 ft 475 kts
2026-05-08 02:22 -32.70071 151.98072 31926 ft 473 kts
2026-05-08 02:22 -32.66900 151.99085 32393 ft 471 kts
2026-05-08 02:22 -32.63742 152.00093 32869 ft 469 kts
2026-05-08 02:23 -32.60596 152.01094 33344 ft 467 kts
2026-05-08 02:23 -32.57462 152.02086 33818 ft 465 kts
2026-05-08 02:23 -32.54344 152.03069 34267 ft 463 kts
2026-05-08 02:23 -32.51229 152.04051 34651 ft 462 kts
2026-05-08 02:24 -32.48170 152.05019 35001 ft 461 kts
2026-05-08 02:24 -32.45072 152.06002 35323 ft 459 kts
2026-05-08 02:24 -32.41993 152.06978 35675 ft 457 kts
2026-05-08 02:24 -32.38924 152.07951 36029 ft 456 kts
2026-05-08 02:25 -32.35868 152.08918 36375 ft 454 kts
2026-05-08 02:25 -32.34837 152.09243 36487 ft 454 kts